C/2008 J1 ( Boattini )

Japanese version
Home page
Total 6,336 html files since Dec. 4, 1995
Updated on July 20, 2008

---------------------------------------------------------------------

* Profile

Discovery Date May 2, 2008
Magnitude 14.2 mag
Discoverer A. Boattini (Catalina Sky Survey)

* Pictures

* Orbital Elements

Epoch 2008 Aug. 2.0 TT = JDT 2454680.5
T 2008 July 13.26777 TT                                 MPC
q   1.7242413            (2000.0)            P               Q
z  +0.0061351      Peri.   68.12609     +0.46026129     +0.12053105
 +/-0.0000173      Node   273.41822     -0.64246859     +0.72896975
e   0.9894216      Incl.   61.77910     +0.61269376     +0.67385114

* Finding Charts

* Magnitudes Graph

        m1 = 2.2 + 5 log d + 30 log r

---------------------------------------------------------------------

The orbital elements are published on M.P.E.C. 2008-N38.
The charts are made with StellaNavigator Ver.8 (AstroArts).
The magnitudes graphs are made with Comet for Windows.

---------------------------------------------------------------------

Copyright(C) 1995-2008 Seiichi Yoshida (comet@aerith.net). All rights reserved.